TimeEDT,TemperatureF,Dew PointF,Humidity,Sea Level PressureIn,VisibilityMPH,Wind Direction,Wind SpeedMPH,Gust SpeedMPH,PrecipitationIn,Events,Conditions,WindDirDegrees,DateUTC
12:54 AM,64.0,51.1,63,29.80,10.0,Calm,Calm,-,N/A,,Clear,0,2013-06-15 04:54:00
1:54 AM,59.0,52.0,78,29.80,10.0,Calm,Calm,-,N/A,,Clear,0,2013-06-15 05:54:00
2:54 AM,60.1,51.1,72,29.81,10.0,Calm,Calm,-,N/A,,Clear,0,2013-06-15 06:54:00
3:54 AM,59.0,50.0,72,29.83,10.0,Calm,Calm,-,N/A,,Clear,0,2013-06-15 07:54:00
4:54 AM,60.1,48.0,64,29.86,10.0,Calm,Calm,-,N/A,,Clear,0,2013-06-15 08:54:00
5:54 AM,60.1,46.9,62,29.88,10.0,Calm,Calm,-,N/A,,Clear,0,2013-06-15 09:54:00
6:54 AM,62.1,46.0,56,29.90,10.0,Variable,3.5,-,N/A,,Clear,0,2013-06-15 10:54:00
7:54 AM,64.9,46.0,50,29.91,10.0,NNW,3.5,-,N/A,,Clear,330,2013-06-15 11:54:00
8:54 AM,68.0,46.0,45,29.92,10.0,WNW,6.9,-,N/A,,Clear,300,2013-06-15 12:54:00
9:54 AM,71.1,45.0,39,29.93,10.0,NW,9.2,-,N/A,,Clear,310,2013-06-15 13:54:00
10:54 AM,72.0,41.0,33,29.93,10.0,NW,11.5,17.3,N/A,,Clear,320,2013-06-15 14:54:00
11:54 AM,73.0,43.0,34,29.94,10.0,NNW,9.2,-,N/A,,Clear,340,2013-06-15 15:54:00
12:54 PM,73.9,43.0,33,29.93,10.0,WNW,8.1,-,N/A,,Clear,290,2013-06-15 16:54:00
1:54 PM,75.9,41.0,29,29.92,10.0,West,10.4,20.7,N/A,,Clear,280,2013-06-15 17:54:00
2:54 PM,77.0,41.0,28,29.90,10.0,West,11.5,17.3,N/A,,Partly Cloudy,270,2013-06-15 18:54:00
3:54 PM,78.1,43.0,29,29.88,10.0,WNW,8.1,-,N/A,,Clear,300,2013-06-15 19:54:00
4:54 PM,78.1,41.0,27,29.88,10.0,West,13.8,17.3,N/A,,Partly Cloudy,260,2013-06-15 20:54:00
5:54 PM,77.0,39.0,25,29.89,10.0,West,8.1,18.4,N/A,,Clear,270,2013-06-15 21:54:00
6:54 PM,75.9,39.0,26,29.89,10.0,NW,9.2,-,N/A,,Clear,320,2013-06-15 22:54:00
7:54 PM,73.0,43.0,34,29.90,10.0,West,4.6,-,N/A,,Clear,260,2013-06-15 23:54:00
8:54 PM,66.9,46.9,49,29.91,10.0,SSW,3.5,-,N/A,,Clear,210,2013-06-16 00:54:00
9:54 PM,64.9,46.0,50,29.93,10.0,South,3.5,-,N/A,,Clear,190,2013-06-16 01:54:00
10:54 PM,63.0,48.0,58,29.93,10.0,SSW,3.5,-,N/A,,Clear,210,2013-06-16 02:54:00
11:54 PM,63.0,48.0,58,29.95,10.0,SSW,5.8,-,N/A,,Clear,210,2013-06-16 03:54:00